Regional Weather Roundup
Issued by NWS Little Rock, AR

Home | Current Version | Previous Version | Graphics & Text | Print | Product List | Glossary On
Versions: 1 2 3 4 5 6 7 8 9 10 11 12 13 14 15 16 17 18 19 20 21 22 23 24 25 26 27 28 29 30 31 32 33 34 35 36 37 38 39 40 41 42 43 44 45 46 47 48 49 50
000
ASUS44 KLZK 212100
RWRLZK
ARKANSAS STATE WEATHER ROUNDUP
NATIONAL WEATHER SERVICE LITTLE ROCK AR
ISSUED BY NATIONAL WEATHER SERVICE MEMPHIS TN
400 PM CDT THU SEP 21 2017

NOTE: "FAIR" INDICATES FEW OR NO CLOUDS BELOW 12,000 FEET WITH NO
SIGNIFICANT WEATHER AND/OR OBSTRUCTIONS TO VISIBILITY.

ARZ001-003-010-029-212200-
NORTHWEST ARKANSAS

CITY           SKY/WX    TMP DP  RH WIND       PRES   REMARKS
FORT SMITH     MOSUNNY   91  69  48 SE10      29.92F HX  96
HARRISON       MOSUNNY   90  66  45 S14G20    29.99F HX  92
BENTONVILLE    MOSUNNY   88  70  55 S10       29.98F HX  93
SILOAM SPGS    PTSUNNY   88  71  57 S13       29.96F HX  94
HIGHFILL       SUNNY     89  70  53 S13       29.96F HX  94
SPRINGDALE     MOSUNNY   88  70  55 S12       29.98F HX  92
$$

ARZ004-005-016-212200-
NORTH CENTRAL ARKANSAS

CITY           SKY/WX    TMP DP  RH WIND       PRES   REMARKS
BATESVILLE     MOSUNNY  N/A N/A N/A S8        29.98F
FLIPPIN        MOSUNNY   90  67  46 S8        29.96F HX  93
MTN HOME       MOSUNNY   89  66  46 S8        29.96F HX  91
$$

ARZ040-041-212200-
WEST CENTRAL ARKANSAS

CITY           SKY/WX    TMP DP  RH WIND       PRES   REMARKS
MOUNT IDA      SUNNY     90  65  43 VRB5      29.95F HX  92
$$

ARZ017-025-026-028-212200-
NORTHEAST ARKANSAS

CITY           SKY/WX    TMP DP  RH WIND       PRES   REMARKS
JONESBORO      SUNNY     93  74  53 SW12G22   29.97F HX 103
NEWPORT        SUNNY     92  71  50 S12       29.97F HX  98
BLYTHEVILLE    MOSUNNY   91  72  53 S8        29.99F HX  98
$$

ARZ022-033-042-044-212200-
CENTRAL ARKANSAS

CITY           SKY/WX    TMP DP  RH WIND       PRES   REMARKS
LITTLE ROCK    MOSUNNY   90  72  55 SE9       29.96F HX  97
JACKSONVILLE   MOSUNNY   94  71  48 SE7       29.96F HX 100
SEARCY         MOSUNNY   93  74  53 S8        29.98F HX 103
HOT SPRINGS    SUNNY     92  70  48 MISG      29.96F HX  97
RUSSELLVILLE   MOSUNNY   92  68  45 S8        29.94F HX  96
$$

ARZ036-212200-
EAST ARKANSAS

CITY           SKY/WX    TMP DP  RH WIND       PRES   REMARKS
WEST MEMPHIS   SUNNY     91  72  53 S9        29.97F HX  98
$$

ARZ050-070-073-212200-
SOUTHWEST ARKANSAS

CITY           SKY/WX    TMP DP  RH WIND       PRES   REMARKS
TEXARKANA      MOSUNNY   89  69  51 S5        29.94F HX  93
EL DORADO      SUNNY     89  69  51 S7        29.97F HX  93
DEQUEEN        MOSUNNY   91  72  53 S10G16    29.91F HX  98
$$

ARZ056-057-069-212200-
SOUTHEAST ARKANSAS

CITY           SKY/WX    TMP DP  RH WIND       PRES   REMARKS
PINE BLUFF     MOSUNNY   91  71  51 S8        29.97F HX  97
STUTTGART      MOSUNNY   93  70  46 SE8       29.97F HX  99
MONTICELLO     MOSUNNY   90  71  53 SW7       29.97F HX  96
$$




USA.gov is the U.S. government's official web portal to all federal, state and local government web resources and services.